User: anonymous   Login
Location: Beuerbach
(48.1459°N, 10.9174°E)
Time: 12:29:49
(UTC+00:00)
Language:

SL-16 R/B - Orbit

View from above orbital plane
View from above orbital plane
View from above satellite
View from above satellite

Ground track
Ground track

The orbit data is extracted from the following two-line orbital elements,

1 31793U 07029B   24205.63745626  .00000419  00000-0  24255-3 0  9998
2 31793  70.9770 340.9766 0001984 255.8163 115.0775 14.14641510881350
Epoch (UTC): 23 July 2024 15:17:56
Eccentricity: 0.0001984
inclination: 70.9770°
perigee height: 842 km
apogee height: 845 km
right ascension of ascending node: 340.9766°
argument of perigee: 255.8163°
revolutions per day: 14.14641510
mean anomaly at epoch: 115.0775°
orbit number at epoch: 88135

The dashed part of the orbit path shows where the satellite is in the earth's shadow,  

DLR